Location: Axtheid
(49.6213°N, 11.8205°E)
Time: 13:22:56
(UTC+00:00)

CZ-4B R/B - Pass Details

Date: 24 January 2021
Orbit: 387 x 458 km, 97.6° (Epoch: 25 February)

Event Time Altitude Azimuth Distance (km) Brightness Sun altitude
Exits shadow 16:45:49 - 25° (NNE) 2,120 4.4 -8.3°
Reaches altitude 10° 16:47:13 10° 33° (NNE) 1,573 3.7 -8.5°
Maximum altitude 16:50:13 29° 96° (E) 823 2.2 -9.0°
Drops below altitude 10° 16:53:08 10° 160° (SSE) 1,524 4.1 -9.4°
Sets 16:55:15 0° 171° (S) 2,369 5.2 -9.7°
